Home   Weather   Horn   Past weeks

Flag for Austria Past Weather in Horn, Lower Austria, Austria — Yesterday and Last 2 Weeks

Now
55 °F

Cool.


Feels Like: 54 °F
Forecast: 42 / 59 °F
Wind: 6 mph from East

Location: Retz

Current Time: Apr 30, 2017 at 3:22:54 pm

Latest Report: Apr 30, 2017 at 2:00 pm


Visibility: N/A

Pressure: 30.06 "Hg

Humidity: 55%

Dew Point: 39 °F

Location of HornLocation

Past Weather in Horn — Graph

°F

Horn Temperature Yesterday

Maximum temperature yesterday: 55 °F (at 4:00 pm)
Minimum temperature yesterday: 37 °F (at 12:00 am)
Average temperature yesterday: 45 °F

High & Low Weather Summary for the Past Weeks

 TemperatureHumidityPressure
High64 °F (Apr 25, 6:00 pm)98% (Apr 27, 9:00 pm)30.51 "Hg (Apr 27, 9:00 pm)
Low34 °F (Apr 20, 6:00 am)37% (Apr 24, 6:00 pm)29.67 "Hg (Apr 25, 7:00 pm)
Average44 °F72%30.04 "Hg
* Reported Apr 15 1:00 pm — Apr 30 1:00 pm, Horn, Weather by CustomWeather, © 2017

Note: Actual official high and low records may vary slightly from our data, if they occured in-between our weather recording intervals... More about our weather records

Advertising

Horn Weather History for the Previous 24 Hours

Scroll right to see more
 ConditionsComfort  
Time TempWeatherWind HumidityBarometerVisibility
1:00 pm
Sun, Apr 30
55 °FCool.5 mph54%30.07 "HgN/A
12:00 pm54 °FCool.5 mph62%30.09 "HgN/A
11:00 am52 °FCool.6 mph70%30.10 "HgN/A
10:00 am50 °FCool.5 mph74%30.11 "HgN/A
9:00 am48 °FCool.6 mph77%30.11 "HgN/A
8:00 am45 °FSunny.6 mph82%30.12 "Hg5 mi
7:00 am43 °FSunny.6 mph85%30.12 "Hg3 mi
6:00 am42 °FQuite cool.5 mph82%30.11 "HgN/A
5:00 am42 °FQuite cool.3 mph83%30.11 "HgN/A
4:00 am43 °FQuite cool.3 mph78%30.10 "HgN/A
3:00 am43 °FQuite cool.3 mph77%30.10 "HgN/A
2:00 am42 °FQuite cool.1 mph78%30.09 "HgN/A
1:00 am46 °FCool.3 mph66%30.09 "HgN/A
12:00 am46 °FCool.1 mph70%30.09 "HgN/A
11:00 pm
Sat, Apr 29
45 °FCool.3 mph73%30.09 "HgN/A
10:00 pm46 °FCool.1 mph69%30.08 "HgN/A
9:00 pm48 °FCool.6 mph64%30.06 "HgN/A
8:00 pm49 °FPassing clouds.5 mph66%30.06 "Hg14 mi
7:00 pm51 °FCool.6 mph58%30.04 "HgN/A
6:00 pm52 °FCool.6 mph51%30.04 "HgN/A
5:00 pm54 °FCool.5 mph49%30.03 "HgN/A
4:00 pm55 °FCool.3 mph39%30.03 "HgN/A
3:00 pm53 °FCool.2 mph48%30.03 "HgN/A
Weather by CustomWeather, © 2017

See weather overviewHow to use our weather pages